Weather History for Lanai City, HI

Change the Weather History Date:

Tuesday, August 20, 2013

  Actual Average Record
Temperature  
Mean Temperature 74 °F -  
Max Temperature 84 °F 82 °F 84 °F (1996)
Min Temperature 64 °F 67 °F 62 °F (1954)
Cooling Degree Days 9    
Growing Degree Days 24 (Base 50)    
Moisture  
Dew Point 66 °F    
Average Humidity 75    
Maximum Humidity 96    
Minimum Humidity 48    
Precipitation  
Precipitation 0.00 in - - ()
Sea Level Pressure  
Sea Level Pressure 29.99 in    
Wind  
Wind Speed 5 mph (NE)    
Max Wind Speed 9 mph    
Max Gust Speed -    
Visibility 10 miles    
Events      
Averages and records for this station are not official NWS values.
T = Trace of Precipitation, MM = Missing Value Source: NWS Daily Summary

Daily Weather History Graph

Daily Weather History Graph

Search for Another Location

Airport:

Trip Planner

Search our weather history database for the weather conditions in past years. The results will help you decide how hot, cold, wet, or windy it might be!

Date:

Astronomy

Aug. 20, 2013 Rise Set
Actual Time 6:08 AM HST 6:53 PM HST
Civil Twilight 5:45 AM HST 7:16 PM HST
Nautical Twilight 5:18 AM HST 7:42 PM HST
Astronomical Twilight 4:51 AM HST 8:10 PM HST
Moon 6:41 PM HST (8/20) 5:46 AM HST (8/20)
Length of Visible Light 13h 30m
Length of Day
12h 44m
Full, 100% of the Moon is Illuminated
Aug 20
Full
Aug 20
Full
Aug 27
Last Quarter
Sep 5
New
Sep 12
First Quarter

Hourly Weather History & Observations

Time (HST) Temp. Heat Index Dew Point Humidity Pressure Visibility Wind Dir Wind Speed Gust Speed Precip Events Conditions
12:56 AM 66.9 °F - 63.9 °F 90% 29.99 in 10.0 mi North 3.5 mph - N/A   Clear
1:56 AM 66.2 °F - 64.4 °F 94% 30.05 in - ENE 3.5 mph - N/A   Clear
2:56 AM 64.9 °F - 61.0 °F 87% 29.98 in - NE 3.5 mph - N/A   Clear
3:56 AM 66.9 °F - 65.8 °F 96% 29.97 in 10.0 mi ENE 5.8 mph - N/A   Partly Cloudy
4:56 AM 68.0 °F - 63.0 °F 84% 29.96 in 10.0 mi ESE 3.5 mph - N/A   Mostly Cloudy
5:56 AM 68.9 °F - 65.8 °F 90% 29.97 in 10.0 mi East 4.6 mph - N/A   Mostly Cloudy
6:56 AM 70.0 °F - 66.9 °F 90% 29.99 in 10.0 mi East 4.6 mph - N/A   Scattered Clouds
7:56 AM 72.9 °F - 68.9 °F 87% 30.00 in 10.0 mi East 6.9 mph - N/A   Partly Cloudy
8:56 AM 75.9 °F - 65.8 °F 71% 30.00 in 10.0 mi ENE 3.5 mph - N/A   Partly Cloudy
9:56 AM 84.9 °F 85.9 °F 63.0 °F 48% 29.99 in 10.0 mi Variable 6.9 mph - N/A   Partly Cloudy
10:56 AM 80.6 °F 82.7 °F 66.2 °F 61% 30.06 in 10.0 mi Variable 5.8 mph - N/A   Overcast
11:56 AM 79.9 °F - 65.8 °F 62% 29.99 in 10.0 mi WNW 8.1 mph - N/A   Overcast
12:30 PM 78.8 °F - 64.4 °F 61% 30.05 in 10.0 mi WSW 8.1 mph - N/A   Overcast
12:56 PM 79.9 °F - 64.9 °F 60% 29.98 in 10.0 mi WSW 4.6 mph - N/A   Overcast
1:56 PM 81.0 °F 82.7 °F 64.9 °F 58% 29.96 in 10.0 mi Variable 3.5 mph - N/A   Overcast
2:26 PM 80.6 °F 82.3 °F 64.4 °F 58% 30.02 in 10.0 mi Variable 4.6 mph - N/A   Overcast
2:56 PM 83.8 °F 86.0 °F 65.8 °F 55% 29.94 in 10.0 mi Variable 6.9 mph - N/A   Mostly Cloudy
3:06 PM 82.4 °F 84.6 °F 66.2 °F 58% 30.01 in 10.0 mi Variable 3.5 mph - N/A   Overcast
3:56 PM 84.9 °F 88.2 °F 68.0 °F 57% 29.94 in 10.0 mi West 9.2 mph - N/A   Mostly Cloudy
4:14 PM 82.4 °F 84.6 °F 66.2 °F 58% 30.00 in 10.0 mi Variable 6.9 mph - N/A   Scattered Clouds
4:56 PM 81.0 °F 83.3 °F 66.9 °F 62% 29.93 in 10.0 mi West 6.9 mph - N/A   Partly Cloudy
5:56 PM 79.0 °F - 65.8 °F 64% 29.94 in 10.0 mi Variable 5.8 mph - N/A   Partly Cloudy
6:56 PM 74.8 °F - 65.8 °F 73% 29.95 in 10.0 mi NNW 4.6 mph - N/A   Clear
7:56 PM 72.9 °F - 66.9 °F 82% 29.97 in 10.0 mi ENE 5.8 mph - N/A   Clear
8:56 PM 72.9 °F - 68.0 °F 85% 29.98 in 10.0 mi NNE 8.1 mph - N/A   Clear
9:56 PM 72.0 °F - 68.0 °F 87% 29.98 in 10.0 mi NNE 6.9 mph - N/A   Clear
10:56 PM 72.0 °F - 68.9 °F 90% 29.99 in - NE 4.6 mph - N/A   Mostly Cloudy
11:14 PM 71.6 °F - 69.8 °F 94% 30.06 in 10.0 mi Calm Calm - N/A   Partly Cloudy
11:39 PM 71.6 °F - 69.8 °F 94% 30.05 in - NNE 5.8 mph - N/A   Mostly Cloudy
11:56 PM 72.0 °F - 68.9 °F 90% 29.99 in - NNE 8.1 mph - N/A   Mostly Cloudy